Regional Weather Roundup
Issued by NWS Jackson, KY

Home | Current Version | Previous Version | Text Only | Print | Product List | Glossary Off
Versions: 1 2 3 4 5 6 7 8 9 10 11 12 13 14 15 16 17 18 19 20 21 22 23 24 25 26 27 28 29 30 31 32 33 34 35 36 37 38 39 40 41 42 43 44 45 46 47 48 49 50

000
ASUS43 KJKL 232219
RWRJKL

EAST KENTUCKY HOURLY WEATHER ROUNDUP
NATIONAL WEATHER SERVICE JACKSON KY
600 PM EDT TUE SEP 23 2014

NOTE: "FAIR" INDICATES FEW OR NO CLOUDS BELOW 12,000 FEET WITH
NO SIGNIFICANT WEATHER AND/OR OBSTRUCTIONS TO VISIBILITY.

* THESE REPORTS ARE NOT UNDER NWS QUALITY CONTROL AND MAY NOT
  REPORT WEATHER SUCH AS PRECIPITATION AND FOG.

KYZ079-080-083-085-087-088-110-112-115-119-120-232300
...EASTERN KENTUCKY...

CITY           SKY/WX    TMP DP  RH WIND       PRES   REMARKS
JACKSON        SUNNY     68  49  50 CALM      30.28S
LONDON         SUNNY     72  49  44 NE6       30.26R
SOMERSET*      SUNNY     72  43  35 CALM      30.25S
MONTICELLO*    SUNNY     74  49  41 E7        30.26R
MIDDLESBORO*   SUNNY     74  52  46 SW3       30.24S
HARLAN APT*      N/A     72  50  46 N5        30.25S
HAZARD APT*    CLEAR     68  52  56 NE3       30.27
BLACK MTN*       N/A     59  52  77 CALM        N/A
PIKEVILLE APT* SUNNY     66  54  63 N3        30.28S
BIG SANDY*     CLEAR     67  53  58 NE3       30.29R
MOREHEAD APT*  CLEAR     68  43  40 NE8       30.30S
$$

KYZ035-036-041-042-044-050-067-078-099-232300
...CENTRAL KENTUCKY...

CITY           SKY/WX    TMP DP  RH WIND       PRES   REMARKS
MT STERLING*   SUNNY     70  45  40 E7        30.28F
FLEMING/MASON* SUNNY     70  43  37 E3        30.29S
DANVILLE*      SUNNY     70  46  43 NE7       30.26F
RICHMOND*      SUNNY     70  46  43 NE5       30.25F
LEXINGTON      SUNNY     72  44  36 NE10      30.26F
FRANKFORT      SUNNY     71  43  36 E8        30.26S
$$

KYZ091>093-OHZ055-061-077-WVZ005-015-034-035-042-232300
...SOUTHERN OHIO/WEST VIRGINIA...

CITY           SKY/WX    TMP DP  RH WIND       PRES   REMARKS
COVINGTON      SUNNY     73  43  33 E7        30.28S
COLUMBUS       SUNNY     73  40  30 E5        30.30F
DAYTON         SUNNY     73  43  33 NE5       30.30F
WILMINGTON     SUNNY     70  40  33 NE7       30.29F
HUNTINGTON     SUNNY     69  43  38 NE6       30.28S
CHARLESTON     MOSUNNY   69  43  38 E3        30.28S
PINEVILLE*     MOSUNNY   65  59  81 MISG      30.33R
BECKLEY        PTSUNNY   65  48  54 SE10      30.32R
BLUEFIELD      PTSUNNY   64  51  62 VRB3      30.33R
$$

VAZ002-007-008-TNZ017-027-036-066-071-232300
...SOUTHWEST VIRGINIA/EAST TENNESSEE...

CITY           SKY/WX    TMP DP  RH WIND       PRES   REMARKS
WISE*          MOSUNNY   68  48  49 N7        30.30S
JONESVILLE*    CLEAR     73  48  40 CALM      30.26S
ABINGDON*      PTSUNNY   67  52  57 SE8       30.28S
BRISTOL        MOSUNNY   75  48  38 E7        30.24S
KNOXVILLE      MOSUNNY   76  51  41 N5        30.20S
OAK RIDGE      SUNNY     76  50  40 CALM      30.22F
CROSSVILLE     SUNNY     72  44  36 E3        30.24S
NASHVILLE      SUNNY     77  44  30 VRB7      30.20F
$$

...KEY TO REMARKS...
VSB - VISIBILITY IN MILES
WCI - WIND CHILL INDEX
HX  - HEAT INDEX

$$


USA.gov is the U.S. government's official web portal to all federal, state and local government web resources and services.